Regional Weather Roundup
Issued by NWS

Home | Current Version | Previous Version | Text Only | Print | Product List | Glossary On
Versions: 1 2 3 4 5 6 7 8 9 10 11 12 13 14 15 16 17 18 19 20 21 22 23 24 25 26 27 28 29 30 31 32 33 34 35 36 37 38 39 40 41 42 43 44 45 46 47 48 49 50
000
ASUS45 KSLC 221710
RWRUT

UTAH REGIONAL WEATHER ROUNDUP
NATIONAL WEATHER SERVICE SALT LAKE CITY UT
1100 AM MDT SAT JUL 22 2017

UTZ001>011-023>025-221800-

NORTHERN UTAH

CITY           SKY/WX    TMP DP  RH WIND       PRES   REMARKS
BRIGHAM CITY   SUNNY     83  34  17 CALM      30.15S
HILL AFB       SUNNY     81  45  27 CALM      30.18S
LOGAN          SUNNY     78  39  24 CALM      30.18F
OGDEN          SUNNY     84  43  23 N9        30.14S
SALT LAKE CITY MOSUNNY   88  51  28 CALM      30.12S
TOOELE VALLEY  SUNNY     86  52  30 N7        30.14S
WENDOVER       SUNNY     89  31  12 N10       30.14S
HEBER CITY     SUNNY     75  45  33 CALM      30.24F
WEST JORDAN    SUNNY     84  61  45 SE3       30.16S

$$

UTZ011>015-024>027-221800-

CENTRAL/NORTHEAST UTAH

CITY           SKY/WX    TMP DP  RH WIND       PRES   REMARKS
PROVO AIRPORT  SUNNY     84  55  36 SE5       30.17S
MOAB/CANYONLAN SUNNY     78  61  55 CALM      30.16F
DELTA          SUNNY     84  46  26 CALM      30.16S
PRICE          SUNNY     76  54  46 S6        30.25S
ROOSEVELT      SUNNY     77  50  38 CALM      30.26S
VERNAL         SUNNY     77  53  43 VRB3      30.24F

$$

UTZ013>016-019>022-027-221800-

SOUTHERN UTAH

CITY           SKY/WX    TMP DP  RH WIND       PRES   REMARKS
BRYCE CANYON   SUNNY     75  52  44 NE10      30.38R
CEDAR CITY     SUNNY     83  50  31 CALM      30.21F
MILFORD        SUNNY     86  51  29 S9        30.16F
ST GEORGE      SUNNY     92  55  28 CALM      30.01F HX  90
HANKSVILLE     SUNNY     81  54  39 NW5       30.19F
BLANDING       MOSUNNY   76  53  44 CALM      30.31S

$$

REGIONAL REPORTS     COLORADO/ARIZONA

CITY           SKY/WX    TMP DP  RH WIND       PRES   REMARKS
CRAIG, CO      CLOUDY    73  53  49 NE6       30.32S
GRAND JUNCTION SUNNY     77  61  57 S8        30.20F
RIFLE, CO      CLOUDY    77  55  46 VRB6      30.25F
MONTROSE, CO   CLOUDY    70  56  61 SW3       30.28F
CORTEZ, CO     CLOUDY    77  56  48 S3        30.23S
COLORADO CITY    N/A     88  50  27 SE3       30.19F
PAGE, AZ       SUNNY     85  57  38 VRB5      30.13F
GRAND CANYON   SUNNY     80  53  39 VRB6      30.30S
KINGMAN, AZ    SUNNY     91  55  29 SW9       30.07R
FLAGSTAFF, AZ  MOSUNNY   73  56  54 NE7       30.33R

$$

REGIONAL REPORTS    NEVADA/IDAHO/WYOMING

CITY           SKY/WX    TMP DP  RH WIND       PRES   REMARKS
LAS VEGAS, NV  MOSUNNY   97  47  18 CALM      29.95R HX  93
ELY, NY        SUNNY     80  38  22 N7        30.28F
ELKO, NV       SUNNY     82  29  14 CALM      30.20F
POCATELLO, ID  SUNNY     77  41  27 W13       30.22S
BURLEY, ID     SUNNY     74  43  32 W8        30.19F
FORT BRIDGER,    N/A     79  32  18 E5        30.38S
EVANSTON, WY   SUNNY     79  31  17 E6        30.35F
ROCK SPRINGS,  SUNNY     77  33  20 E7        30.34F
KEMMERER, WY     N/A     77  23  13 CALM      30.38S

$$



USA.gov is the U.S. government's official web portal to all federal, state and local government web resources and services.